Total_Precipitation_Accumulation
0.00 0.00 0.00 0.00 0.00 0.00 0.00 0.00 0.00 0.00 0.03 0.09 0.09 0.18 0.14 0.20 0.34 0.58 0.52 1.04 1.61 1.61 1.87 1.49 0.69 0.34 0.06 0.02 0.01 0.01 0.00 0.00 0.00 0.00 0.00 0.00 0.00 0.01 0.00 0.00 0.00 0.00 0.01 0.02 0.01 0.03 0.04 0.03 0.00
0.00 0.00 0.00 0.00 0.00 0.00 0.00 0.00 0.00 0.01 0.11 0.30 0.29 0.33 0.32 0.81 0.55 0.55 0.59 0.66 0.44 0.51 0.54 1.99 2.15 0.96 0.44 0.19 0.09 0.06 0.01 0.00 0.01 0.00 0.00 0.00 0.00 0.01 0.01 0.02 0.01 0.01 0.02 0.02 0.02 0.05 0.04 0.02 0.00
0.00 0.00 0.00 0.00 0.00 0.00 0.00 0.00 0.02 0.06 0.11 0.13 0.18 0.23 0.45 1.30 0.80 0.71 0.68 0.88 1.03 0.91 0.75 0.68 1.21 1.43 1.08 0.50 0.31 0.19 0.04 0.00 0.01 0.01 0.00 0.00 0.00 0.00 0.01 0.02 0.02 0.01 0.02 0.02 0.02 0.04 0.04 0.01 0.00
0.00 0.00 0.00 0.00 0.00 0.00 0.00 0.01 0.03 0.06 0.08 0.07 0.08 0.29 0.57 0.94 0.81 0.78 0.77 1.46 2.11 1.96 1.71 1.50 1.37 1.12 1.42 1.20 0.95 0.50 0.10 0.01 0.03 0.02 0.00 0.00 0.00 0.00 0.00 0.01 0.01 0.03 0.04 0.03 0.03 0.02 0.02 0.01 0.00
0.00 0.00 0.00 0.00 0.00 0.00 0.00 0.01 0.06 0.17 0.42 0.40 0.11 0.39 0.75 0.59 0.47 0.81 1.34 2.01 2.56 3.10 3.53 2.28 3.25 2.60 2.34 1.84 1.63 1.47 0.94 0.19 0.24 0.14 0.03 0.04 0.01 0.00 0.00 0.00 0.01 0.03 0.03 0.03 0.02 0.01 0.01 0.00 0.00
0.00 0.00 0.00 0.00 0.00 0.00 0.01 0.06 0.15 0.25 0.28 0.19 0.16 0.53 0.88 0.64 0.53 1.01 1.30 2.49 3.73 2.91 3.59 3.53 4.68 6.45 4.68 3.18 2.77 2.83 2.46 1.79 0.91 0.47 0.32 0.34 0.28 0.11 0.02 0.01 0.01 0.03 0.03 0.02 0.01 0.01 0.00 0.00 0.00
0.00 0.00 0.00 0.00 0.00 0.01 0.11 0.16 0.19 0.18 0.11 0.24 0.42 0.88 1.01 0.64 0.78 0.94 1.77 3.63 5.41 6.22 6.41 5.89 5.76 6.76 6.41 5.76 4.49 4.01 4.00 5.04 4.38 2.14 1.13 0.76 0.83 0.54 0.21 0.09 0.03 0.02 0.01 0.00 0.00 0.00 0.00 0.00 0.00
0.00 0.00 0.00 0.00 0.00 0.07 0.19 0.23 0.15 0.10 0.17 0.53 0.24 0.70 0.67 1.00 0.91 0.81 1.11 2.50 4.32 7.45 8.55 8.07 7.93 7.67 5.09 4.66 4.26 3.55 4.48 3.57 4.68 4.18 2.68 1.58 1.06 0.77 0.38 0.17 0.03 0.04 0.01 0.00 0.00 0.00 0.00 0.00 0.00
0.00 0.00 0.00 0.00 0.01 0.15 0.23 0.08 0.24 0.13 0.11 0.27 0.31 0.50 0.60 0.85 0.55 0.66 0.70 1.38 2.34 3.94 4.55 5.00 6.24 6.73 6.11 4.37 3.25 2.55 3.12 4.97 2.52 2.65 2.62 2.39 1.09 0.69 0.41 0.21 0.03 0.04 0.01 0.00 0.00 0.00 0.00 0.00 0.00
0.00 0.00 0.00 0.00 0.06 0.24 0.13 0.03 0.19 0.09 0.19 0.54 0.38 0.72 0.66 0.43 0.46 0.57 0.60 0.69 1.07 1.57 2.86 3.26 2.93 2.28 2.38 2.35 2.26 1.83 2.35 3.94 3.40 2.35 1.68 1.10 1.17 0.61 0.32 0.25 0.07 0.03 0.00 0.00 0.00 0.00 0.00 0.00 0.00
0.00 0.00 0.00 0.02 0.11 0.04 0.02 0.07 0.10 0.32 0.45 0.52 1.13 0.48 0.41 0.49 0.56 0.68 0.93 0.50 0.51 0.78 1.43 1.56 1.27 0.97 0.76 0.66 0.83 1.13 2.06 2.44 2.86 1.88 1.50 0.88 0.79 0.68 0.32 0.21 0.10 0.01 0.00 0.00 0.00 0.00 0.00 0.00 0.00
0.00 0.00 0.00 0.01 0.01 0.01 0.00 0.01 0.11 0.35 0.80 0.30 0.32 0.38 0.47 0.75 0.62 0.28 0.23 0.27 0.40 0.54 0.78 0.76 0.58 0.48 0.31 0.25 0.39 0.59 1.10 2.16 1.81 1.76 1.37 1.02 0.39 0.43 0.21 0.06 0.03 0.00 0.00 0.00 0.00 0.00 0.00 0.00 0.00
0.00 0.00 0.00 0.01 0.04 0.03 0.00 0.04 0.12 0.30 0.11 0.11 0.16 0.38 0.55 0.56 0.17 0.08 0.15 0.16 0.25 0.46 0.45 0.54 0.48 0.28 0.15 0.11 0.17 0.36 0.60 1.89 1.23 1.89 1.19 0.99 0.13 0.19 0.10 0.04 0.02 0.00 0.00 0.00 0.00 0.00 0.00 0.00 0.00
0.00 0.00 0.00 0.00 0.01 0.01 0.02 0.05 0.09 0.39 0.12 0.12 0.12 0.32 0.56 0.58 0.09 0.04 0.07 0.11 0.16 0.31 0.42 0.44 0.41 0.36 0.24 0.12 0.08 0.20 0.56 1.14 1.19 1.80 0.98 1.17 0.18 0.16 0.10 0.06 0.03 0.01 0.01 0.00 0.00 0.00 0.00 0.00 0.00
0.00 0.00 0.02 0.03 0.01 0.00 0.05 0.19 0.35 0.13 0.08 0.07 0.03 0.04 0.36 0.86 0.24 0.04 0.03 0.05 0.06 0.19 0.32 0.54 0.62 0.41 0.29 0.23 0.28 0.44 0.70 0.85 0.74 1.20 0.93 1.13 0.35 0.15 0.08 0.07 0.06 0.01 0.00 0.00 0.00 0.00 0.00 0.00 0.00
0.00 0.00 0.01 0.04 0.03 0.02 0.15 0.48 0.05 0.03 0.05 0.04 0.01 0.01 0.06 0.10 0.03 0.01 0.01 0.00 0.01 0.05 0.22 0.57 0.75 0.77 0.61 0.51 0.51 0.85 0.78 0.73 0.68 0.90 0.73 0.77 0.51 0.12 0.08 0.09 0.04 0.00 0.00 0.00 0.00 0.00 0.00 0.00 0.00
0.00 0.00 0.00 0.01 0.01 0.01 0.05 0.33 0.12 0.05 0.09 0.08 0.02 0.01 0.01 0.01 0.01 0.00 0.03 0.02 0.05 0.03 0.10 0.54 0.92 1.07 0.98 0.70 0.97 0.64 0.26 0.42 0.52 0.69 0.60 0.72 0.53 0.16 0.06 0.14 0.15 0.02 0.03 0.00 0.00 0.00 0.00 0.00 0.00
0.00 0.00 0.00 0.02 0.02 0.01 0.01 0.03 0.25 0.12 0.05 0.27 0.09 0.04 0.04 0.00 0.01 0.03 0.07 0.07 0.07 0.05 0.11 0.52 1.15 1.24 1.02 0.62 0.42 0.35 0.24 0.37 0.43 0.64 0.63 0.69 0.34 0.11 0.06 0.12 0.12 0.08 0.05 0.02 0.00 0.00 0.00 0.00 0.00
0.00 0.00 0.00 0.00 0.01 0.00 0.00 0.01 0.01 0.00 0.00 0.03 0.05 0.07 0.02 0.00 0.03 0.05 0.07 0.09 0.07 0.08 0.19 0.43 0.82 1.15 0.63 0.36 0.22 0.30 0.35 0.33 0.30 0.35 0.57 0.67 0.43 0.19 0.15 0.14 0.09 0.03 0.07 0.06 0.01 0.00 0.00 0.00 0.00
0.00 0.00 0.00 0.00 0.00 0.00 0.00 0.00 0.00 0.00 0.00 0.01 0.01 0.11 0.03 0.00 0.01 0.02 0.04 0.03 0.04 0.11 0.36 0.45 0.40 0.43 0.40 0.30 0.19 0.14 0.23 0.31 0.19 0.18 0.28 0.34 0.28 0.21 0.17 0.14 0.12 0.05 0.08 0.09 0.04 0.02 0.02 0.01 0.00
0.00 0.00 0.00 0.00 0.00 0.00 0.00 0.00 0.00 0.01 0.01 0.02 0.00 0.00 0.00 0.00 0.02 0.03 0.03 0.03 0.01 0.02 0.18 0.19 0.08 0.12 0.21 0.29 0.26 0.24 0.30 0.34 0.36 0.22 0.27 0.28 0.20 0.15 0.22 0.10 0.09 0.16 0.08 0.08 0.08 0.05 0.05 0.03 0.03
0.00 0.00 0.00 0.00 0.00 0.00 0.00 0.00 0.00 0.00 0.01 0.00 0.00 0.00 0.00 0.00 0.00 0.00 0.00 0.00 0.01 0.06 0.25 0.12 0.11 0.12 0.12 0.14 0.15 0.18 0.27 0.22 0.17 0.15 0.12 0.29 0.18 0.21 0.31 0.15 0.07 0.18 0.16 0.13 0.11 0.07 0.07 0.10 0.09
0.01 0.00 0.00 0.00 0.00 0.04 0.02 0.00 0.03 0.05 0.02 0.00 0.00 0.00 0.00 0.00 0.00 0.00 0.00 0.00 0.02 0.07 0.20 0.16 0.13 0.22 0.15 0.26 0.28 0.22 0.25 0.26 0.22 0.12 0.10 0.19 0.30 0.21 0.37 0.22 0.16 0.13 0.21 0.22 0.24 0.21 0.12 0.11 0.21
0.00 0.02 0.00 0.00 0.00 0.02 0.01 0.01 0.01 0.01 0.01 0.01 0.00 0.00 0.00 0.00 0.00 0.00 0.00 0.01 0.03 0.11 0.17 0.29 0.31 0.22 0.21 0.35 0.41 0.26 0.22 0.20 0.31 0.28 0.15 0.17 0.22 0.29 0.39 0.41 0.29 0.20 0.19 0.32 0.29 0.29 0.25 0.21 0.23
0.01 0.06 0.08 0.10 0.03 0.01 0.00 0.01 0.01 0.01 0.04 0.08 0.10 0.00 0.00 0.00 0.00 0.00 0.02 0.04 0.04 0.08 0.13 0.18 0.32 0.42 0.28 0.26 0.24 0.21 0.18 0.21 0.16 0.16 0.21 0.24 0.19 0.23 0.28 0.30 0.21 0.20 0.19 0.25 0.34 0.35 0.33 0.36 0.43
0.00 0.03 0.10 0.22 0.11 0.03 0.06 0.01 0.01 0.00 0.00 0.00 0.00 0.00 0.00 0.00 0.00 0.00 0.01 0.02 0.05 0.11 0.08 0.06 0.29 0.41 0.48 0.34 0.16 0.14 0.08 0.06 0.07 0.14 0.19 0.13 0.12 0.10 0.17 0.19 0.20 0.17 0.18 0.19 0.23 0.27 0.28 0.30 0.33
0.06 0.05 0.03 0.21 0.15 0.07 0.06 0.01 0.00 0.00 0.00 0.00 0.00 0.00 0.00 0.00 0.00 0.00 0.00 0.01 0.04 0.07 0.05 0.09 0.10 0.27 0.37 0.24 0.12 0.07 0.03 0.04 0.07 0.09 0.08 0.07 0.07 0.09 0.09 0.08 0.15 0.18 0.15 0.13 0.13 0.15 0.14 0.15 0.16
0.02 0.04 0.19 0.33 0.18 0.10 0.01 0.03 0.02 0.01 0.00 0.00 0.00 0.00 0.00 0.00 0.00 0.00 0.01 0.06 0.02 0.04 0.05 0.16 0.12 0.11 0.24 0.27 0.24 0.08 0.08 0.10 0.11 0.11 0.17 0.17 0.17 0.16 0.12 0.08 0.06 0.07 0.07 0.09 0.09 0.06 0.08 0.10 0.08
0.02 0.15 0.18 0.11 0.03 0.07 0.07 0.10 0.02 0.01 0.01 0.00 0.00 0.00 0.00 0.00 0.00 0.00 0.01 0.04 0.05 0.12 0.11 0.08 0.20 0.47 0.36 0.30 0.16 0.11 0.13 0.27 0.35 0.25 0.30 0.28 0.28 0.27 0.25 0.20 0.12 0.09 0.10 0.11 0.09 0.07 0.07 0.08 0.09
0.00 0.03 0.16 0.28 0.14 0.02 0.08 0.18 0.08 0.05 0.03 0.00 0.00 0.00 0.00 0.00 0.00 0.00 0.00 0.00 0.02 0.02 0.02 0.02 0.09 0.18 0.26 0.31 0.28 0.44 0.61 0.55 0.69 0.64 0.62 0.58 0.37 0.29 0.26 0.28 0.25 0.21 0.16 0.17 0.16 0.15 0.14 0.15 0.18